Regional Weather Roundup
Issued by NWS

Home | Current Version | Previous Version | Text Only | Print | Product List | Glossary On
Versions: 1 2 3 4 5 6 7 8 9 10 11 12 13 14 15 16 17 18 19 20 21 22 23 24 25 26 27 28 29 30 31 32 33 34 35 36 37 38 39 40 41 42 43 44 45 46 47 48 49 50
813
ASUS43 KBIS 200802
RWRND

NORTH DAKOTA REGIONAL WEATHER ROUNDUP
NATIONAL WEATHER SERVICE BISMARCK ND
200 AM CST SAT JAN 20 2018

NOTE: "FAIR" INDICATES FEW OR NO CLOUDS BELOW 12,000 FEET WITH NO
SIGNIFICANT WEATHER AND/OR OBSTRUCTIONS TO VISIBILITY.


NDZ001>003-009>011-017-200900-
NORTHWEST NORTH DAKOTA

CITY           SKY/WX    TMP DP  RH WIND       PRES   REMARKS
WILLISTON      MOCLDY    32  26  78 SW3       29.74R
MINOT          PTCLDY    34  25  69 SW13      29.69R
MINOT AFB      CLOUDY    31  25  77 W15       29.67R
$$

NDZ018>021-031>035-040>046-200900-
SOUTHWEST NORTH DAKOTA

CITY           SKY/WX    TMP DP  RH WIND       PRES   REMARKS
BISMARCK       CLOUDY    37  30  75 W8        29.77R
DICKINSON      CLOUDY    34  31  88 W9        29.75R
GARRISON         N/A     27  23  85 W10       29.74R WCI  17
HETTINGER ARPT CLOUDY    34  31  88 W8        29.80R
$$

NDZ004>008-012>016-024-026-027-054-200900-
NORTHEAST NORTH DAKOTA

CITY           SKY/WX    TMP DP  RH WIND       PRES   REMARKS
GRAND FORKS    FAIR      29  25  85 W10       29.70R WCI  20
GRND FRKS AFB  FAIR      31  25  79 W12       29.70R
DEVILS LAKE    MOCLDY    27  23  85 SW8       29.70  WCI  19
$$

NDZ022-023-025-028>030-036>039-047>053-200900-
SOUTHEAST NORTH DAKOTA

CITY           SKY/WX    TMP DP  RH WIND       PRES   REMARKS
FARGO          FAIR      28  25  88 W5        29.71F
JAMESTOWN      PTCLDY    31  27  85 W14       29.72R
$$





USA.gov is the U.S. government's official web portal to all federal, state and local government web resources and services.